Retour au catalogue

OPS 9328

IDSCS 15

ActifMilitaireMEO
NORAD 2655·PAYLOAD·🇺🇸 United States

Lancé Jan 18, 1967 depuis Cape Canaveral Space Force Station

Loading…

Prochains Passages (prochaines 24 heures)

TLE

FraisSource: Space-Track

Époque: Sep 13, 2026, 04:47 UTC

1 02655U 67003H   26256.19934046 -.00000127  00000-0  00000-0 0  9992
2 02655   8.2292  46.9819 0072152  42.1354 246.5130  1.07230477140148

Suivez OPS 9328 en temps réel avec AllMySat

Download on the App Store